Miscellaneous Local Product
Issued by NWS Hastings, NE

Home | Current Version | Previous Version | Text Only | Print | Product List | Glossary On
Versions: 1 2 3 4 5 6 7 8 9 10 11 12 13 14 15 16 17 18 19 20 21 22 23 24 25 26 27 28 29 30 31 32 33 34 35 36 37 38 39 40 41 42 43 44 45 46 47 48 49 50
729
AXUS43 KGID 262002
MISGRI

GID CWA HOURLY WEATHER ROUNDUP
NATIONAL WEATHER SERVICE HASTINGS NE
200 PM CST SUN FEB 26 2017

NOTE: "FAIR" INDICATES FEW OR NO CLOUDS BELOW 12,000 FEET WITH NO
SIGNIFICANT WEATHER AND/OR OBSTRUCTIONS TO VISIBILITY.

...SOUTH CENTRAL NEBRASKA...

CITY           SKY/WX    TMP DP  RH WIND       PRES   REMARKS
GRAND ISLAND   SUNNY     43  20  39 W7        29.91F
HASTINGS       SUNNY     44  12  27 W13       29.91F
KEARNEY        SUNNY     41  12  30 NW9       29.90F
ORD            SUNNY     37  16  42 W7        29.88F WCI  32
YORK           SUNNY     39  25  56 CALM      29.92F
AURORA         SUNNY     42  20  41 W6        29.91F
LEXINGTON      SUNNY     40  14  35 W12       29.89F WCI  33
HOLDREGE       SUNNY     43   9  24 W12G18    29.89F
HEBRON         SUNNY     47  15  27 W10       29.91F

...NEBRASKA PANHANDLE...

CITY           SKY/WX    TMP DP  RH WIND       PRES   REMARKS
CHADRON        SUNNY     25  10  53 SW8       29.84F WCI  16
ALLIANCE       SUNNY     25  14  63 W10       29.82F WCI  15
SCOTTSBLUFF    SUNNY     32  11  41 W10       29.83F WCI  24
SIDNEY         SUNNY     34  13  41 W13G20    29.83F WCI  25

...WESTERN AND NORTH CENTRAL NEBRASKA...

CITY           SKY/WX    TMP DP  RH WIND       PRES   REMARKS
VALENTINE      SUNNY     31  16  54 W9        29.84F WCI  23
AINSWORTH      SUNNY     33  20  59 W10       29.85S WCI  24
ONEILL         SUNNY     35  20  53 SW7       29.89S WCI  29
BROKEN BOW     SUNNY     36  21  54 W6        29.88F WCI  31
IMPERIAL       SUNNY     39  12  33 N20       29.88F WCI  29
NORTH PLATTE   SUNNY     38  13  35 NW15      29.88F WCI  29
MCCOOK         SUNNY     44   6  21 NW23      29.89F

...EASTERN NEBRASKA...

CITY           SKY/WX    TMP DP  RH WIND       PRES   REMARKS
NORFOLK        SUNNY     34  20  56 S9        29.90F WCI  27
SO SIOUX CITY  SUNNY     35  24  64 W7        29.93S WCI  29
TEKAMAH        SUNNY     34  23  64 SW6       29.94F WCI  29
COLUMBUS       SUNNY     37  23  56 W3        29.93F
ALBION         SUNNY     38  21  50 W3        29.91S
OMAHA EPPLEY   MOSUNNY   43  22  43 NW7       29.94F
OFFUTT AFB     SUNNY     43  21  41 W5        29.94F
MILLARD        SUNNY     42  23  47 W5        29.94F
LINCOLN        SUNNY     43  22  43 SW8       29.95F
NEBRASKA CITY  MOSUNNY   48  15  26 W13G22    29.92F
BEATRICE       SUNNY     50  16  26 W13G22    29.91F
FALLS CITY     MOSUNNY   52  23  32 W14G22    29.91F

...NORTHERN KANSAS...

CITY           SKY/WX    TMP DP  RH WIND       PRES   REMARKS
GOODLAND       SUNNY     41   6  23 SE6       29.85F
HILL CITY      SUNNY     48   7  18 NW13      29.91F
PHILLIPSBURG   SUNNY     48   7  18 W15G21    29.90F
SMITH CENTER   SUNNY     48   9  20 NW12      29.90F
HAYS           SUNNY     48   7  18 NW5       29.91F
RUSSELL        SUNNY     50  10  20 NW8G17    29.90F
CONCORDIA      SUNNY     50  14  23 SW10      29.90F
SALINA         SUNNY     51  25  36 N5        29.93F
TOPEKA         SUNNY     52  24  33 S12G17    29.93F



USA.gov is the U.S. government's official web portal to all federal, state and local government web resources and services.